Watertown, SD

8:33 PM CDT on August 19, 2017 (GMT -0500)
Watertown Municipal

Weather History for KATY - February, 2013

Change the Weather History Date:

Tuesday, February 12, 2013

  Actual Average Record
Temperature  
Mean Temperature 15 °F 16 °F  
Max Temperature 25 °F 26 °F 57 °F (1921)
Min Temperature 4 °F 7 °F -35 °F (1905)
Degree Days  
Heating Degree Days 50 49  
Month to date heating degree days 566 600  
Since 1 July heating degree days 5536 5682  
Cooling Degree Days 0 0  
Month to date cooling degree days 0 0  
Year to date cooling degree days 0 0  
Moisture  
Dew Point 14 °F    
Average Humidity 85    
Maximum Humidity 96    
Minimum Humidity 73    
Precipitation  
Precipitation 0.00 in 0.02 in 0.50 in (1908)
Month to date precipitation 0.87 0.20  
Year to date precipitation 1.15 0.72  
Snow  
Snow 0.00 in - - ()
Month to date snowfall 10.5  
Since 1 July snowfall 23.1  
Snow Depth 0.00 in    
Sea Level Pressure  
Sea Level Pressure 29.94 in    
Wind  
Wind Speed 10 mph (WSW)    
Max Wind Speed 17 mph    
Max Gust Speed 20 mph    
Visibility 10 miles    
Events      
T = Trace of Precipitation, MM = Missing Value Source: NWS Daily Summary

Daily Weather History Graph

Daily Weather History Graph

Search for Another Location

Airport or City:

Trip Planner

Search our weather history database for the weather conditions in past years. The results will help you decide how hot, cold, wet, or windy it might be!

Date:

Astronomy

Feb. 12, 2013 Rise Set
Actual Time 7:33 AM CST 5:52 PM CST
Civil Twilight 7:03 AM CST 6:23 PM CST
Nautical Twilight 6:28 AM CST 6:57 PM CST
Astronomical Twilight 5:54 AM CST 7:31 PM CST
Moon 8:21 AM CST (2/12) 9:05 PM CST (2/12)
Length of Visible Light 11h 20m
Length of Day
10h 19m
Waxing Crescent, 7% of the Moon is Illuminated
Feb 12
Waxing Crescent
Feb 17
First Quarter
Feb 25
Full
Mar 4
Last Quarter
Mar 11
New

Hourly Weather History & Observations

Time (CST) Temp. Windchill Dew Point Humidity Pressure Visibility Wind Dir Wind Speed Gust Speed Precip Events Conditions
12:53 AM 10.0 °F -1.9 °F 9.0 °F 95% 30.05 in 7.0 mi SSW 8.1 mph - N/A   Clear
1:53 AM 8.1 °F -2.0 °F 6.1 °F 92% 30.04 in 10.0 mi South 5.8 mph - N/A   Clear
2:53 AM 9.0 °F -4.2 °F 7.0 °F 92% 30.00 in 10.0 mi South 9.2 mph - N/A   Clear
3:53 AM 15.1 °F 0.5 °F 12.0 °F 88% 29.96 in 10.0 mi SSW 13.8 mph - N/A   Partly Cloudy
4:53 AM 17.1 °F 5.0 °F 14.0 °F 88% 29.96 in 10.0 mi SSW 10.4 mph - N/A   Overcast
5:53 AM 19.0 °F 6.8 °F 15.1 °F 85% 29.94 in 10.0 mi SW 11.5 mph - N/A   Overcast
6:53 AM 19.0 °F 5.6 °F 14.0 °F 81% 29.92 in 10.0 mi SW 13.8 mph - N/A   Overcast
7:53 AM 17.1 °F 3.0 °F 12.0 °F 81% 29.93 in 10.0 mi SW 13.8 mph - N/A   Clear
8:53 AM 16.0 °F 4.4 °F 10.0 °F 77% 29.94 in 10.0 mi WSW 9.2 mph - N/A   Clear
9:53 AM 19.0 °F 9.0 °F 12.9 °F 77% 29.94 in 10.0 mi SW 8.1 mph - N/A   Clear
10:53 AM 21.0 °F 8.6 °F 15.1 °F 78% 29.94 in 10.0 mi SW 12.7 mph - N/A   Clear
11:53 AM 21.9 °F 9.8 °F 16.0 °F 78% 29.94 in 10.0 mi WSW 12.7 mph - N/A   Clear
12:53 PM 23.0 °F 10.6 °F 17.1 °F 78% 29.92 in 10.0 mi West 13.8 mph - N/A   Clear
1:53 PM 24.1 °F 14.4 °F 17.1 °F 75% 29.93 in 10.0 mi WNW 9.2 mph - N/A   Clear
2:53 PM 25.0 °F 16.3 °F 18.0 °F 75% 29.91 in 10.0 mi WNW 8.1 mph - N/A   Clear
3:53 PM 23.0 °F 13.1 °F 19.0 °F 85% 29.91 in 10.0 mi WSW 9.2 mph - N/A   Clear
4:53 PM 21.9 °F 12.5 °F 18.0 °F 85% 29.92 in 10.0 mi West 8.1 mph - N/A   Clear
5:53 PM 19.0 °F 9.0 °F 16.0 °F 88% 29.92 in 10.0 mi West 8.1 mph - N/A   Clear
6:53 PM 17.1 °F 7.6 °F 15.1 °F 92% 29.92 in 10.0 mi WSW 6.9 mph - N/A   Partly Cloudy
7:53 PM 19.0 °F 10.0 °F 17.1 °F 92% 29.92 in 10.0 mi West 6.9 mph - N/A   Clear
8:53 PM 14.0 °F 6.5 °F 12.9 °F 95% 29.94 in 10.0 mi WSW 4.6 mph - N/A   Clear
9:53 PM 12.9 °F 1.6 °F 10.9 °F 92% 29.92 in 10.0 mi West 8.1 mph - N/A   Clear
10:53 PM 18.0 °F 9.8 °F 16.0 °F 92% 29.91 in 10.0 mi West 5.8 mph - N/A   Overcast
11:53 PM 23.0 °F 12.4 °F 21.0 °F 92% 29.88 in 10.0 mi WSW 10.4 mph - N/A   Overcast